Location: JKWMA (FRAC)
(33.1803°N, 84.5512°W)
Time: 14:14:17
(UTC-04:00)

Hubble Space Telescope - Pass Details

Date: 27 March 2019
Orbit: 536 x 540 km, 28.5° (Epoch: 20 October)

Event Time Altitude Azimuth Distance (km) Brightness Sun altitude
Rises 20:24:00 0° 245° (WSW) 2,669 5.4 -6.9°
Reaches altitude 10° 20:26:23 10° 236° (SW) 1,780 4.2 -7.4°
Maximum altitude 20:30:09 35° 170° (S) 874 1.7 -8.2°
Enters shadow 20:33:39 12° 105° (ESE) 1,686 2.6 -8.9°
